• Join FlightAware (Why Join?)
  • Login
  • US Flag GB Flag 
06:11 EST


 

Airport Tracker/Info


-or-


 

Live Flight TrackerFlight Track Log ✈ EJA122 ✈ 26-Apr-2013 ✈ CYYZ - KTEB

Flight Track Log - Related Links

Times and Time Zones

All times are in EDT time to prevent confusion due to time zone crossing. See the EJA122 flight status page for this flight to view local times or setup timezone preferences in your user account.

Time Position Orientation Groundspeed Altitude Reporting Facility
EDT Latitude Longitude Course Direction KTS MPH feet Rate Location/Type
08:31 43.6833 -79.6333 360° North 30 35 600  Level Toronto Center
08:32 43.6833 -79.6333 360° North 10 12 600  Level Toronto Center
08:34 43.6833 -79.6333 324° Northwest 10 12 600 840 Level Toronto Center
08:36 43.6333 -79.7000 224° Southwest 190 219 4,100 2,100 Climbing Toronto Center
08:37 43.5833 -79.7000 180° South 230 265 7,000 1,500 Climbing Toronto Center
08:38 43.5167 -79.6333 144° Southeast 280 322 7,100  Climbing Toronto Center
08:39 43.4833 -79.5333 115° Southeast 280 322 7,100  Level Toronto Center
08:40 43.5000 -79.4500 75° East 280 322 7,100 1,260 Level Toronto Center
08:41 43.4833 -79.3500 103° East 260 299 9,700 2,460 Climbing Toronto Center
08:42 43.4667 -79.2500 103° East 280 322 12,100 1,860 Climbing Toronto Center
08:43 43.4500 -79.1000 99° East 330 380 13,500 1,440 Climbing Toronto Center
08:44 43.4333 -78.9667 100° East 370 426 15,000 1,500 Climbing Toronto Center
08:45 43.3833 -78.8333 117° Southeast 390 449 16,600 1,380 Climbing Toronto Center
08:46 43.3331 -78.7281 123° Southeast 387 445 17,900 1,080 Climbing Cleveland Center
08:47 43.2642 -78.5933 125° Southeast 408 470 18,900 1,200 Climbing Cleveland Center
08:48 43.1950 -78.4531 124° Southeast 428 493 20,400 1,440 Climbing Cleveland Center
08:49 43.1236 -78.3133 125° Southeast 441 507 21,800 1,440 Climbing Cleveland Center
08:50 43.0519 -78.1683 124° Southeast 453 521 23,300 1,500 Climbing Cleveland Center
08:51 42.9778 -78.0206 124° Southeast 463 533 24,800 1,500 Climbing Cleveland Center
08:52 42.9036 -77.8736 125° Southeast 463 533 26,300 1,080 Climbing Cleveland Center
08:53 42.8375 -77.7206 120° Southeast 463 533 27,000 300 Climbing Cleveland Center
08:54 42.8036 -77.5381 104° East 468 539 27,000  Level Cleveland Center
08:55 42.7708 -77.3333 102° East 480 552 27,000  Level Cleveland Center
08:56 42.7425 -77.1481 102° East 497 572 27,000  Level Cleveland Center
08:57 42.7128 -76.9592 102° East 505 581 27,000  Level Boston Center
08:58 42.6825 -76.7761 103° East 505 581 27,000  Level Boston Center
08:59 42.6433 -76.5928 106° East 505 581 27,000  Level Boston Center
09:00 42.5722 -76.4300 121° Southeast 493 567 27,000  Level Boston Center
09:01 42.4983 -76.2675 122° Southeast 501 577 27,000  Level Boston Center
09:02 42.4244 -76.1081 122° Southeast 501 577 27,000  Level Boston Center
09:03 42.3506 -75.9436 121° Southeast 512 589 27,000 -1,260 Level Boston Center
09:04 42.2725 -75.7681 121° Southeast 512 589 24,500 -2,580 Descending Boston Center
09:05 42.2019 -75.6100 121° Southeast 501 577 21,900 -2,580 Descending Boston Center
09:06 42.1308 -75.4636 123° Southeast 486 559 19,400 -2,040 Descending Boston Center
09:07 42.0794 -75.3522 122° Southeast 465 535 17,900 -1,200 Descending Boston Center
09:08 42.0189 -75.1956 117° Southeast 441 507 17,000 -480 Descending Boston Center
09:09 41.9639 -75.0508 117° Southeast 428 493 17,000 -480 Level Boston Center
09:10 41.8769 -74.9272 133° Southeast 403 464 16,100 -1,680 Descending Boston Center
09:11 41.7889 -74.8625 151° Southeast 409 471 13,700 -2,520 Descending Boston Center
09:12 41.6819 -74.7861 152° Southeast 401 461 11,100 -2,040 Descending Boston Center
09:13 41.6081 -74.7364 153° Southeast 358 412 9,700 -1,500 Descending Boston Center
09:14 41.5253 -74.7056 164° South 294 338 8,200 -1,140 Descending Boston Center
09:15 41.4589 -74.6836 166° South 278 320 7,500 -840 Descending Boston Center
09:16 41.3333 -74.6500 169° South 283 326 6,200 -900 Descending New York TRACON
09:17 41.2667 -74.6333 169° South 277 319 5,400 -900 Descending New York TRACON
09:18 41.1833 -74.6000 163° South 261 300 4,500 -720 Descending New York TRACON
09:19 41.1167 -74.5833 169° South 271 312 4,000 -720 Descending New York TRACON
09:20 41.0500 -74.5500 159° South 256 295 3,200 -540 Descending New York TRACON
09:21 40.9833 -74.5333 169° South 263 303 3,000 -120 Descending New York TRACON
09:22 40.9000 -74.5000 163° South 265 305 3,000  Level New York TRACON
09:23 40.8667 -74.4500 131° Southeast 264 304 3,000  Level New York TRACON
09:24 40.8000 -74.3833 143° Southeast 255 293 3,000 -60 Level New York TRACON
09:25 40.7500 -74.3167 135° Southeast 233 268 2,900 -480 Descending New York TRACON
09:26 40.7500 -74.2500 90° East 201 231 2,100 -660 Descending New York TRACON
09:27 40.7667 -74.1833 72° East 192 221 1,600 -360 Descending New York TRACON
09:28 40.8000 -74.1500 37° Northeast 171 197 1,500 -480 Descending New York TRACON
09:29 40.8167 -74.1000 66° East 119 137 700 -780 Descending New York TRACON
09:31 40.8500 -74.0500 56° Northeast  Level FlightAware Approximate
09:38 40.8501 -74.0608 56° Northeast  Level Estimated
09:39 40.8501 -74.0608 56° Northeast  Level Estimated